Simultaneous Nadir Overpasses (SNOs) Predictions

Prediction of SNOs between METOP-B and NOAA-19 Satellite Orbit:

Table of predicted SNOs for the next 14.0 days since TLE Epoch: 7/8/2023
Index Date (METOP-B) Time (METOP-B) Lat,Lon (METOP-B) SZA (METOP-B ) Date (NOAA-19) Time (NOAA-19) Lat,Lon (NOAA-19) SZA (NOAA-19 ) Distance(km) Time Diff (sec)
1 07/17/2023 08:02:09 -80.90, -86.90 118.88 07/17/2023 08:00:57 -80.89, -86.83 118.90 1.38 72
2 07/17/2023 08:52:50 80.88, 80.19 61.10 07/17/2023 08:52:02 80.89, 80.13 61.08 1.12 48
3 07/17/2023 09:43:31 -80.89,-112.42 118.89 07/17/2023 09:42:56 -80.89,-112.32 118.89 1.74 35
4 07/17/2023 10:34:11 80.89, 55.03 61.13 07/17/2023 10:34:00 80.89, 55.00 61.13 0.49 11
5 07/17/2023 11:24:52 -80.90,-137.58 118.86 07/17/2023 11:24:54 -80.90,-137.45 118.84 2.21 2
6 07/17/2023 12:15:32 80.90, 29.87 61.17 07/17/2023 12:15:58 80.90, 29.87 61.18 0.24 26
7 07/17/2023 13:06:13 -80.91,-162.74 118.82 07/17/2023 13:06:52 -80.90,-162.58 118.79 2.76 39



Historial Predications of SNOs between METOP-B and NOAA-19
